AAL4713 KDCA-KDSM

Flight info

Callsign AAL4713
Flight time N/A
Altitude 38000
Route WYNGS5 RAMAY Q72 HACKS J149 ROD SJAAY WHETT CADIZ BFORD IOW J10 DSM
Aircraft A319/M-SDE3FGHIRWY/LB1

Departure

Time N/A
Airport Ronald Reagan Washington National Airport (KDCA)

Arrival

Time 2026-05-06 14:54
Airport Des Moines International Airport (KDSM)
Time Latitude Longitude Altitude Speed Heading
2026-05-06 13:12 39.47779 -81.95002 37874 ft 333 kts 289°
2026-05-06 13:13 39.49909 -82.00322 37889 ft 333 kts 289°
2026-05-06 13:13 39.52039 -82.05653 37889 ft 333 kts 289°
2026-05-06 13:14 39.54167 -82.10979 37928 ft 332 kts 289°
2026-05-06 13:14 39.56274 -82.16274 37888 ft 330 kts 289°
2026-05-06 13:15 39.58374 -82.21573 37886 ft 331 kts 289°
2026-05-06 13:15 39.60481 -82.26883 37894 ft 331 kts 289°
2026-05-06 13:16 39.62587 -82.32195 37896 ft 331 kts 289°
2026-05-06 13:16 39.64696 -82.37512 37897 ft 331 kts 289°
2026-05-06 13:17 39.66798 -82.42841 37920 ft 331 kts 288°
2026-05-06 13:17 39.68894 -82.48164 37918 ft 331 kts 288°
2026-05-06 13:18 39.70988 -82.53485 37953 ft 331 kts 288°
2026-05-06 13:18 39.73078 -82.58808 37954 ft 331 kts 288°
2026-05-06 13:19 39.75167 -82.64138 37953 ft 331 kts 288°
2026-05-06 13:19 39.77250 -82.69468 37952 ft 331 kts 288°
2026-05-06 13:20 39.79329 -82.74796 37951 ft 330 kts 288°
2026-05-06 13:20 39.81408 -82.80122 37955 ft 330 kts 288°
2026-05-06 13:21 39.83472 -82.85417 37939 ft 328 kts 288°
2026-05-06 13:21 39.85512 -82.90687 37934 ft 328 kts 288°
2026-05-06 13:22 39.87588 -82.96036 37936 ft 329 kts 288°
2026-05-06 13:22 39.89653 -83.01361 37955 ft 330 kts 288°
2026-05-06 13:23 39.91713 -83.06690 37954 ft 330 kts 288°
2026-05-06 13:23 39.93758 -83.12002 37958 ft 330 kts 287°
2026-05-06 13:24 39.95810 -83.17351 37976 ft 330 kts 287°
2026-05-06 13:24 39.97880 -83.22736 37969 ft 330 kts 287°
2026-05-06 13:25 39.99928 -83.28055 37957 ft 330 kts 287°
2026-05-06 13:25 40.01984 -83.33420 37950 ft 330 kts 287°
2026-05-06 13:26 40.04037 -83.38786 37946 ft 330 kts 287°
2026-05-06 13:26 40.06087 -83.44169 37958 ft 330 kts 287°
2026-05-06 13:27 40.08130 -83.49549 37941 ft 330 kts 287°
2026-05-06 13:27 40.10171 -83.54916 37938 ft 330 kts 287°
2026-05-06 13:28 40.12221 -83.60296 37938 ft 331 kts 287°
2026-05-06 13:28 40.14276 -83.65694 37946 ft 332 kts 287°
2026-05-06 13:29 40.16318 -83.71107 37955 ft 332 kts 287°
2026-05-06 13:29 40.18364 -83.76529 37966 ft 333 kts 287°
2026-05-06 13:30 40.20412 -83.81966 37975 ft 333 kts 287°
2026-05-06 13:30 40.22463 -83.87402 37979 ft 333 kts 287°
2026-05-06 13:31 40.24502 -83.92843 37998 ft 333 kts 287°
2026-05-06 13:31 40.26538 -83.98294 37990 ft 333 kts 287°
2026-05-06 13:32 40.28583 -84.03707 37983 ft 337 kts 290°
2026-05-06 13:32 40.29966 -84.06258 37982 ft 348 kts 296°
2026-05-06 13:32 40.31488 -84.08733 37983 ft 348 kts 296°
2026-05-06 13:33 40.34536 -84.13689 37982 ft 349 kts 297°
2026-05-06 13:33 40.37583 -84.18658 37973 ft 350 kts 297°
2026-05-06 13:34 40.40634 -84.23645 37976 ft 351 kts 297°
2026-05-06 13:34 40.43694 -84.28652 37980 ft 352 kts 297°
2026-05-06 13:35 40.46753 -84.33671 37998 ft 352 kts 296°
2026-05-06 13:35 40.49809 -84.38695 37982 ft 352 kts 296°
2026-05-06 13:36 40.52865 -84.43722 37970 ft 352 kts 296°
2026-05-06 13:36 40.55920 -84.48757 37970 ft 352 kts 296°
2026-05-06 13:37 40.58972 -84.53798 37967 ft 352 kts 296°
2026-05-06 13:37 40.62024 -84.58839 37979 ft 352 kts 296°
2026-05-06 13:38 40.65073 -84.63893 37978 ft 352 kts 296°
2026-05-06 13:38 40.68119 -84.68959 38000 ft 353 kts 296°
2026-05-06 13:39 40.71169 -84.74027 37987 ft 353 kts 296°
2026-05-06 13:39 40.74212 -84.79092 37983 ft 352 kts 296°
2026-05-06 13:40 40.77252 -84.84158 37991 ft 352 kts 296°
2026-05-06 13:40 40.80288 -84.89233 38042 ft 353 kts 297°
2026-05-06 13:41 40.83325 -84.94318 37976 ft 353 kts 297°
2026-05-06 13:41 40.86368 -84.99412 37974 ft 354 kts 297°
2026-05-06 13:42 40.88898 -85.03664 37977 ft 354 kts 297°
2026-05-06 13:42 40.91944 -85.08791 37994 ft 355 kts 297°
2026-05-06 13:43 40.94994 -85.13920 37992 ft 355 kts 297°
2026-05-06 13:43 40.97679 -85.19261 37990 ft 339 kts 284°
2026-05-06 13:44 40.98757 -85.25199 37989 ft 331 kts 275°
2026-05-06 13:44 40.99564 -85.31204 37989 ft 331 kts 275°
2026-05-06 13:45 41.00379 -85.37218 37993 ft 332 kts 275°
2026-05-06 13:45 41.01599 -85.46239 37997 ft 332 kts 275°
2026-05-06 13:46 41.02403 -85.52260 37999 ft 332 kts 275°
2026-05-06 13:46 41.03202 -85.58293 37996 ft 332 kts 275°
2026-05-06 13:47 41.04004 -85.64329 37993 ft 333 kts 275°
2026-05-06 13:47 41.04800 -85.70371 37994 ft 333 kts 275°
2026-05-06 13:48 41.05592 -85.76429 38030 ft 335 kts 275°
2026-05-06 13:48 41.06385 -85.82513 37995 ft 335 kts 275°
2026-05-06 13:49 41.07171 -85.88572 37990 ft 336 kts 275°
2026-05-06 13:49 41.07966 -85.94694 38002 ft 337 kts 275°
2026-05-06 13:50 41.08758 -86.00827 38016 ft 337 kts 275°
2026-05-06 13:50 41.09546 -86.06965 38024 ft 338 kts 275°
2026-05-06 13:51 41.10337 -86.13105 38026 ft 338 kts 275°
2026-05-06 13:51 41.11117 -86.19252 38034 ft 338 kts 275°
2026-05-06 13:52 41.11894 -86.25404 37992 ft 339 kts 275°
2026-05-06 13:52 41.12675 -86.31567 37993 ft 339 kts 275°
2026-05-06 13:53 41.13457 -86.37735 38003 ft 339 kts 275°
2026-05-06 13:53 41.14228 -86.43911 38009 ft 339 kts 275°
2026-05-06 13:54 41.14993 -86.50091 38017 ft 340 kts 275°
2026-05-06 13:54 41.15756 -86.56277 38022 ft 340 kts 275°
2026-05-06 13:55 41.16080 -86.62490 38033 ft 338 kts 269°
2026-05-06 13:55 41.16158 -86.68729 38030 ft 338 kts 269°
2026-05-06 13:56 41.16230 -86.74976 38029 ft 339 kts 269°
2026-05-06 13:56 41.16299 -86.81235 38028 ft 339 kts 269°
2026-05-06 13:57 41.16363 -86.87498 38026 ft 339 kts 269°
2026-05-06 13:57 41.16420 -86.93757 38023 ft 339 kts 269°
2026-05-06 13:58 41.16483 -87.00030 38041 ft 340 kts 269°
2026-05-06 13:58 41.16548 -87.06318 38036 ft 341 kts 269°
2026-05-06 13:59 41.16600 -87.12621 38035 ft 342 kts 268°
2026-05-06 13:59 41.16649 -87.18933 38016 ft 342 kts 268°
2026-05-06 14:00 41.16696 -87.25250 38015 ft 342 kts 268°
2026-05-06 14:00 41.16738 -87.31530 38015 ft 342 kts 268°
2026-05-06 14:01 41.16772 -87.37858 38021 ft 343 kts 268°
2026-05-06 14:01 41.16813 -87.44201 38017 ft 344 kts 268°
2026-05-06 14:02 41.16850 -87.50559 38021 ft 345 kts 268°
2026-05-06 14:02 41.16878 -87.56930 38032 ft 345 kts 268°
2026-05-06 14:03 41.16898 -87.63303 38042 ft 345 kts 268°
2026-05-06 14:03 41.16917 -87.69682 38052 ft 346 kts 268°
2026-05-06 14:04 41.16939 -87.76066 38059 ft 346 kts 268°
2026-05-06 14:04 41.16960 -87.82458 38064 ft 346 kts 268°
2026-05-06 14:05 41.16978 -87.88854 38067 ft 346 kts 268°
2026-05-06 14:05 41.16985 -87.95246 38061 ft 346 kts 268°
2026-05-06 14:06 41.16987 -88.01628 38058 ft 346 kts 268°
2026-05-06 14:06 41.16986 -88.08012 38050 ft 346 kts 268°
2026-05-06 14:07 41.16987 -88.14409 38031 ft 347 kts 268°
2026-05-06 14:07 41.16982 -88.20811 38025 ft 347 kts 268°
2026-05-06 14:08 41.16975 -88.27233 38025 ft 348 kts 268°
2026-05-06 14:08 41.16963 -88.33663 38033 ft 349 kts 268°
2026-05-06 14:09 41.16950 -88.40096 38039 ft 349 kts 268°
2026-05-06 14:09 41.16925 -88.46532 38044 ft 349 kts 268°
2026-05-06 14:10 41.16899 -88.52970 38063 ft 349 kts 268°
2026-05-06 14:10 41.16879 -88.59374 38060 ft 349 kts 268°
2026-05-06 14:11 41.16850 -88.65829 38064 ft 350 kts 268°
2026-05-06 14:11 41.16820 -88.72292 38062 ft 350 kts 268°
2026-05-06 14:12 41.16781 -88.78753 38061 ft 350 kts 268°
2026-05-06 14:12 41.16734 -88.85216 38057 ft 350 kts 268°
2026-05-06 14:13 41.16687 -88.91672 38058 ft 350 kts 268°
2026-05-06 14:13 41.16639 -88.98118 38057 ft 349 kts 268°
2026-05-06 14:14 41.16589 -89.04559 38054 ft 349 kts 268°
2026-05-06 14:14 41.16537 -89.10993 38073 ft 349 kts 268°
2026-05-06 14:15 41.16478 -89.17428 38071 ft 349 kts 268°
2026-05-06 14:15 41.16412 -89.23877 38096 ft 349 kts 267°
2026-05-06 14:16 41.16343 -89.30324 38087 ft 350 kts 267°
2026-05-06 14:16 41.16276 -89.36774 38076 ft 349 kts 267°
2026-05-06 14:17 41.16208 -89.43226 38074 ft 350 kts 267°
2026-05-06 14:17 41.16128 -89.49682 38069 ft 350 kts 267°
2026-05-06 14:18 41.16045 -89.56084 38074 ft 349 kts 267°
2026-05-06 14:18 41.16719 -89.62484 38066 ft 354 kts 279°
2026-05-06 14:19 41.17909 -89.68835 38076 ft 355 kts 278°
2026-05-06 14:19 41.19083 -89.75194 38082 ft 354 kts 278°
2026-05-06 14:20 41.20254 -89.81550 38071 ft 355 kts 278°
2026-05-06 14:20 41.21428 -89.87911 38061 ft 354 kts 278°
2026-05-06 14:21 41.22594 -89.94272 38062 ft 354 kts 278°
2026-05-06 14:21 41.23761 -90.00641 38076 ft 355 kts 278°
2026-05-06 14:22 41.24924 -90.07015 38076 ft 355 kts 278°
2026-05-06 14:22 41.26085 -90.13386 38089 ft 354 kts 278°
2026-05-06 14:23 41.27240 -90.19748 38085 ft 354 kts 278°
2026-05-06 14:23 41.28390 -90.26122 38086 ft 354 kts 278°
2026-05-06 14:24 41.29342 -90.31413 38087 ft 354 kts 278°
2026-05-06 14:24 41.30488 -90.37780 38091 ft 354 kts 278°
2026-05-06 14:25 41.31624 -90.44145 38097 ft 354 kts 278°
2026-05-06 14:25 41.32758 -90.50509 38088 ft 353 kts 278°
2026-05-06 14:26 41.33893 -90.56870 38086 ft 353 kts 278°
2026-05-06 14:26 41.35017 -90.63248 38102 ft 356 kts 278°
2026-05-06 14:27 41.36156 -90.69687 38078 ft 358 kts 278°
2026-05-06 14:27 41.37298 -90.76161 38074 ft 360 kts 278°
2026-05-06 14:28 41.38433 -90.82656 38083 ft 361 kts 278°
2026-05-06 14:28 41.39573 -90.89173 38085 ft 361 kts 278°
2026-05-06 14:29 41.40710 -90.95688 38111 ft 361 kts 278°
2026-05-06 14:29 41.41837 -91.02204 38114 ft 361 kts 277°
2026-05-06 14:30 41.42961 -91.08718 38118 ft 361 kts 277°
2026-05-06 14:30 41.44086 -91.15234 38137 ft 361 kts 277°
2026-05-06 14:31 41.45204 -91.21768 38124 ft 362 kts 277°
2026-05-06 14:31 41.46320 -91.28323 38116 ft 363 kts 277°
2026-05-06 14:32 41.47437 -91.34895 38111 ft 364 kts 277°
2026-05-06 14:32 41.48544 -91.41433 38123 ft 364 kts 277°
2026-05-06 14:33 41.49658 -91.48021 38126 ft 364 kts 277°
2026-05-06 14:33 41.50769 -91.54605 38131 ft 364 kts 277°
2026-05-06 14:34 41.51767 -91.61206 38127 ft 360 kts 271°
2026-05-06 14:34 41.51582 -91.67834 38123 ft 357 kts 264°
2026-05-06 14:35 41.51249 -91.74450 38119 ft 357 kts 264°
2026-05-06 14:35 41.50920 -91.81065 38113 ft 358 kts 264°
2026-05-06 14:36 41.50588 -91.87687 38105 ft 358 kts 264°
2026-05-06 14:36 41.50253 -91.94323 38110 ft 359 kts 264°
2026-05-06 14:37 41.49907 -92.00966 38110 ft 359 kts 264°
2026-05-06 14:37 41.49556 -92.07615 38108 ft 360 kts 264°
2026-05-06 14:38 41.49202 -92.14270 38116 ft 360 kts 264°
2026-05-06 14:38 41.48845 -92.20931 38117 ft 360 kts 264°
2026-05-06 14:39 41.48666 -92.24260 37907 ft 359 kts 264°
2026-05-06 14:39 41.48487 -92.27588 36668 ft 362 kts 264°
2026-05-06 14:39 41.48305 -92.30941 35491 ft 364 kts 264°
2026-05-06 14:39 41.48120 -92.34305 34356 ft 363 kts 264°
2026-05-06 14:40 41.47935 -92.37658 33060 ft 362 kts 264°
2026-05-06 14:40 41.47745 -92.41023 31529 ft 366 kts 263°
2026-05-06 14:40 41.47551 -92.44447 29888 ft 373 kts 263°
2026-05-06 14:40 41.47353 -92.47929 28025 ft 379 kts 263°
2026-05-06 14:41 41.47153 -92.51448 26263 ft 382 kts 263°
2026-05-06 14:41 41.46954 -92.54982 24597 ft 383 kts 263°
2026-05-06 14:41 41.46754 -92.58521 22867 ft 383 kts 264°
2026-05-06 14:41 41.46553 -92.62064 21101 ft 383 kts 264°
2026-05-06 14:42 41.46350 -92.65607 19538 ft 382 kts 265°
2026-05-06 14:42 41.46148 -92.69134 18046 ft 381 kts 266°
2026-05-06 14:42 41.45945 -92.72646 16514 ft 379 kts 266°
2026-05-06 14:42 41.45741 -92.76140 15146 ft 376 kts 266°
2026-05-06 14:43 41.45538 -92.79590 13883 ft 372 kts 266°
2026-05-06 14:43 41.45335 -92.83018 12560 ft 369 kts 266°
2026-05-06 14:43 41.45137 -92.86402 11305 ft 365 kts 267°
2026-05-06 14:43 41.44941 -92.89684 10816 ft 342 kts 267°
2026-05-06 14:44 41.44756 -92.92702 10656 ft 312 kts 267°
2026-05-06 14:44 41.44583 -92.95462 10531 ft 287 kts 267°
2026-05-06 14:44 41.44424 -92.98016 10290 ft 269 kts 268°
2026-05-06 14:45 41.44130 -93.02872 9871 ft 263 kts 268°
2026-05-06 14:45 41.43985 -93.05299 9723 ft 262 kts 268°
2026-05-06 14:45 41.43840 -93.07722 9582 ft 262 kts 268°
2026-05-06 14:45 41.43694 -93.10146 9444 ft 262 kts 268°
2026-05-06 14:46 41.43545 -93.12603 9301 ft 262 kts 268°
2026-05-06 14:46 41.43396 -93.15022 9164 ft 262 kts 268°
2026-05-06 14:46 41.43245 -93.17442 9029 ft 262 kts 268°
2026-05-06 14:46 41.43094 -93.19868 8703 ft 265 kts 268°
2026-05-06 14:47 41.42940 -93.22337 8212 ft 266 kts 268°
2026-05-06 14:47 41.42785 -93.24785 7775 ft 265 kts 268°
2026-05-06 14:47 41.42633 -93.27186 7369 ft 264 kts 268°
2026-05-06 14:47 41.42479 -93.29624 6899 ft 263 kts 268°
2026-05-06 14:48 41.42325 -93.32049 6193 ft 263 kts 268°
2026-05-06 14:48 41.42168 -93.34484 5474 ft 263 kts 268°
2026-05-06 14:48 41.42014 -93.36854 5166 ft 249 kts 268°
2026-05-06 14:48 41.41870 -93.39064 5021 ft 230 kts 268°
2026-05-06 14:49 41.41734 -93.41117 4925 ft 212 kts 268°
2026-05-06 14:49 41.41610 -93.43035 4826 ft 204 kts 269°
2026-05-06 14:49 41.41491 -93.44910 4735 ft 203 kts 269°
2026-05-06 14:49 41.41438 -93.46784 4520 ft 202 kts 280°
2026-05-06 14:50 41.41811 -93.48547 4307 ft 197 kts 298°
2026-05-06 14:50 41.42592 -93.50021 4048 ft 194 kts 314°
2026-05-06 14:50 41.43499 -93.51330 3794 ft 197 kts 314°
2026-05-06 14:50 41.44421 -93.52672 3528 ft 195 kts 313°
2026-05-06 14:51 41.45319 -93.53979 3273 ft 187 kts 314°
2026-05-06 14:51 41.46175 -93.55225 2992 ft 178 kts 314°
2026-05-06 14:51 41.46981 -93.56397 2766 ft 168 kts 314°
2026-05-06 14:51 41.47743 -93.57506 2536 ft 156 kts 314°
2026-05-06 14:52 41.48439 -93.58519 2337 ft 141 kts 314°
2026-05-06 14:52 41.49072 -93.59441 2163 ft 129 kts 314°
2026-05-06 14:52 41.49665 -93.60305 1980 ft 124 kts 314°
2026-05-06 14:52 41.50252 -93.61159 1805 ft 124 kts 314°
2026-05-06 14:53 41.50832 -93.62004 1631 ft 124 kts 313°
2026-05-06 14:53 41.51423 -93.62866 1450 ft 126 kts 313°
2026-05-06 14:53 41.52014 -93.63726 1264 ft 125 kts 313°
2026-05-06 14:53 41.52597 -93.64585 1039 ft 125 kts 313°
2026-05-06 14:54 41.53172 -93.65428 924 ft 114 kts 314°
2026-05-06 14:54 41.53627 -93.66084 911 ft 74 kts 313°
2026-05-06 14:54 41.53837 -93.66368 916 ft 13 kts 354°
2026-05-06 14:54 41.53900 -93.66295 915 ft 11 kts 76°
2026-05-06 14:55 41.53863 -93.66211 919 ft 12 kts 134°
2026-05-06 14:55 41.53797 -93.66121 912 ft 15 kts 133°
2026-05-06 14:55 41.53730 -93.66010 912 ft 16 kts 128°
2026-05-06 14:55 41.53655 -93.65907 912 ft 16 kts 133°
2026-05-06 14:56 41.53578 -93.65795 912 ft 18 kts 131°
2026-05-06 14:56 41.53482 -93.65652 915 ft 22 kts 132°
2026-05-06 14:56 41.53380 -93.65498 915 ft 22 kts 131°
2026-05-06 14:56 41.53290 -93.65339 916 ft 21 kts 102°
2026-05-06 14:57 41.53303 -93.65152 916 ft 19 kts 60°
2026-05-06 14:57 41.53335 -93.65058 925 ft 3 kts 115°
2026-05-06 14:57 41.53333 -93.65052 926 ft 0 kts 114°